sat.trackr.live / text

‹ back to catalog

STARLINK-34864

NORAD 65330 · 2025-189H

PAYLOAD ACTIVE UNKNOWN

§ Identity

Operator
Country
US
Launch date
2025-08-27
Launch site
AFETR
Launch vehicle
Mass (kg)
RCS (m²)

Purposes: comms

External: N2YO · Heavens-Above · Gunter

§ Orbital elements

Epoch: 2026-05-25T05:03:58.260672Z

Period
94.10 min
Inclination
53.1577°
Eccentricity
0.0001404
Mean motion
15.30208127 rev/d
Perigee alt
474.2 km
Apogee alt
476.2 km
Semi-major
6,853.3 km
B*
6.3643e-4
RAAN
211.2327°
Arg perigee
97.0317°
Mean anomaly
263.0843°
Rev number
4,282

§ Raw data

STARLINK-348641 65330U 25189H   26145.21109098  .00018542  00000+0  63643-3 0  99942 65330  53.1577 211.2327 0001404  97.0317 263.0843 15.30208127 42822

JSON: /api/v1/satellites/65330 · /tle

For live sub-satellite position, see the globe view (requires WebGL).

§ Visibility from observer

Set your observer location to see the next 7 days of passes ≥ 10°. The values pass through the URL so the page stays shareable.

No JS? Fill the form by hand. The geolocation button needs JavaScript.